Location: *
(35.8942°N, 23.3025°E)
Time: 22:06:13
(UTC+00:00)

ISS - Pass Details

Date: 06 December 2022
Orbit: 412 x 423 km, 51.6° (Epoch: 07 February)

Event Time Altitude Azimuth Distance (km) Brightness Sun altitude
Rises 15:55:31 0° 317° (NW) 2,346 0.3 -8.7°
Reaches altitude 10° 15:57:41 10° 325° (NW) 1,483 -0.8 -9.1°
Maximum altitude 16:00:51 41° 37° (NE) 610 -3.3 -9.7°
Drops below altitude 10° 16:04:02 10° 110° (ESE) 1,485 -1.4 -10.3°
Enters shadow 16:04:16 - 111° (ESE) 1,575 -1.3 -10.4°
